Regional Weather Roundup
Issued by NWS

Home | Current Version | Previous Version | Graphics & Text | Print | Product List | Glossary On
Versions: 1 2 3 4 5 6 7 8 9 10 11 12 13 14 15 16 17 18 19 20 21 22 23 24 25 26 27 28 29 30 31 32 33 34 35 36 37 38 39 40 41 42 43 44 45 46 47 48 49 50
000
ASUS43 KLOT 241512
RWRIL

ILLINOIS REGIONAL WEATHER ROUNDUP
NATIONAL WEATHER SERVICE CHICAGO/ROMEOVILLE IL
1000 AM CDT SUN MAY 24 2015

NOTE: "FAIR" INDICATES FEW OR NO CLOUDS BELOW 12,000 FEET WITH NO
SIGNIFICANT WEATHER AND/OR OBSTRUCTIONS TO VISIBILITY.

* THESE STATIONS ARE NOT UNDER NWS QUALITY CONTROL. THEY ALSO MAY NOT
  REPORT WEATHER SUCH AS PRECIPITATION OR FOG.

ILZ001-002-007-009-015-016-024-241600-
NORTHWEST ILLINOIS

CITY           SKY/WX    TMP DP  RH WIND       PRES   REMARKS
MOLINE         CLOUDY    61  56  83 E10       30.05F
STERLING*      CLOUDY    64  57  77 E10       30.10F
SAVANNA*       LGT RAIN  62  57  86 E6        30.10F
$$

ILZ003-004-008-010-011-017-018-241600-
NORTH CENTRAL ILLINOIS

CITY           SKY/WX    TMP DP  RH WIND       PRES   REMARKS
ROCKFORD       LGT RAIN  62  56  80 NE6       30.15F
FREEPORT*      LGT RAIN  59  56  90 E8        30.15F
ROCHELLE*      CLOUDY    64  53  67 E12       30.14F
DE KALB*       CLOUDY    64  52  65 E7        30.16S
PERU*          DRIZZLE   65  57  74 E7        30.11F
$$

ILZ005-006-012>014-019>023-241600-
NORTHEAST ILLINOIS

CITY           SKY/WX    TMP DP  RH WIND       PRES   REMARKS
CHICAGO-OHARE  CLOUDY    66  54  65 SE7       30.15F
CHICAGO-MIDWAY CLOUDY    67  56  67 E7        30.16F
AURORA         CLOUDY    67  54  63 SE10      30.15S
LANSING*       CLOUDY    66  51  58 E5        30.16F
JOLIET*        CLOUDY    69  57  65 SE8       30.14F
WAUKEGAN       CLOUDY    63  54  72 E5        30.16F
DUPAGE AIRPORT CLOUDY    67  52  58 SE7       30.14F
KANKAKEE*      CLOUDY    72  54  54 SE8       30.14F
WHEELING       CLOUDY    66  55  67 CALM      30.18F
MORRIS*        CLOUDY    67  57  68 E9        30.12S
ROMEOVILLE*    CLOUDY    66  56  69 E9        30.14F
NORTHERLY ISL    N/A     59  53  80 CALM        N/A
$$

LMZ740>746-241600-
SOUTHERN LAKE MICHIGAN

STATION/POSITION SKY/WX   TEMP    WIND        PRES    VSBY  WAVE
                          AIR SEA DIR/SP/G                  HT/PER
                          (F)     (DEG/KT/KT) (MB)    (MI)  (FT/S)
SOUTHERN BUOY              44 38  180/ 10/ 10 1023.2R         0
HARRISON CRIB              60     150/  9/ 11   N/A
BURNHAM HARBOR             60      CALM  /  5   N/A
CALUMET HARBOR             62      70/  4/  5   N/A
BURNS HARBOR               67     190/  5/  8 1023.0R
MICHIGAN CITY              68     140/  8/ 10   N/A
MICHIGAN CITY 6N           61 53  130/  4/  4   N/A           0
ST. JOSEPH                 60 54  200/  4/  4   N/A           0
$$

ILZ025>027-034>036-040-047-049-050-058-095>099-241600-
WEST-CENTRAL ILLINOIS

CITY           SKY/WX    TMP DP  RH WIND       PRES   REMARKS
QUINCY         CLOUDY    71  58  63 SE15G22   29.98F
GALESBURG*     CLOUDY    64  57  79 E8        30.04F
MACOMB*        CLOUDY    67  57  71 SE14      30.04F
JACKSONVILLE*  PTSUNNY   77  61  57 SE14G20   30.04F
PITTSFIELD*    PTSUNNY   74  59  59 SE16      30.03F
$$

ILZ028>032-037-038-041>044-048-051>054-059>061-241600-
CENTRAL ILLINOIS

CITY           SKY/WX    TMP DP  RH WIND       PRES   REMARKS
PONTIAC        CLOUDY    75  55  49 SE13      30.12F
BLOOMINGTON    PTSUNNY   76  59  55 S16       30.11F
DECATUR        MOSUNNY   78  59  51 S16G23    30.10F
PEORIA         CLOUDY    72  56  57 SE5       30.07F
LACON*         CLOUDY    68  56  65 SE6       30.08F
LINCOLN*       CLOUDY    76  56  51 S13       30.06F
SPRINGFIELD    CLOUDY    78  59  51 SE17G24   30.06F
TAYLORVILLE    PTSUNNY   73  59  60 S14       30.08F
$$

ILZ033-039-045-046-055>057-062-063-241600-
EAST-CENTRAL ILLINOIS

CITY           SKY/WX    TMP DP  RH WIND       PRES   REMARKS
CHAMPAIGN      MOSUNNY   80  56  43 S18G24    30.13F HX  80
DANVILLE*      PTSUNNY   75  56  51 S13       30.13F
RANTOUL*       PTSUNNY   80  57  45 S21       30.13F HX  80
MATTOON        SUNNY     75  59  57 S14       30.13F
PARIS*         PTSUNNY   77  57  50 S14       30.16F
$$

ILZ079-100>102-241600-
SOUTHWEST ILLINOIS

CITY           SKY/WX    TMP DP  RH WIND       PRES   REMARKS
ALTON          PTSUNNY   75  64  69 S14       30.06F
BELLEVILLE     MOSUNNY   77  65  67 S17       30.06F
CAHOKIA*       PTSUNNY   75  62  64 S14G21    30.05F
SPARTA*        MOSUNNY   75  63  67 S9G17     30.09F
$$

ILZ064>066-069>071-074>076-080>082-084>086-088>090-092>094-241600-
SOUTH-CENTRAL ILLINOIS

CITY           SKY/WX    TMP DP  RH WIND       PRES   REMARKS
CARBONDALE     SUNNY     77  62  59 S12       30.10F
CAIRO*         SUNNY     77  62  59 S13G23    30.12F
EFFINGHAM*     PTSUNNY   76  55  48 SE12G21   30.14F
MARION         MOSUNNY   77  63  61 S14       30.12F
MT. VERNON     PTSUNNY   79  63  57 S12G17    30.13F HX  80
CENTRALIA*     MOSUNNY   78  59  52 S12G18    30.10F HX  80
SALEM*         PTSUNNY   78  59  51 S14G21    30.12F
METROPOLIS*    MOSUNNY   79  60  53 S9G20     30.13F HX  80
$$

ILZ067-068-072-073-078-083-087-091-241600-
SOUTHEAST ILLINOIS

CITY           SKY/WX    TMP DP  RH WIND       PRES   REMARKS
LAWRENCEVILLE  MOSUNNY   78  57  48 S15       30.17F
FLORA*         MOSUNNY   76  58  53 S17       30.14F
FAIRFIELD*     MOSUNNY   77  60  54 S16G22    30.13F
HARRISBURG*    SUNNY     77  59  53 S13       30.15F
ROBINSON*      MOSUNNY   76  56  48 S14       30.18F
CARMI*         SUNNY     79  52  38 SE17      30.15F
$$

ABBREVIATIONS USED IN REMARKS
   TC - TEMPERATURE IN CELSIUS
  WCI - WIND CHILL INDEX
   HX - HEAT INDEX
  VSB - VISIBILITY
$$




USA.gov is the U.S. government's official web portal to all federal, state and local government web resources and services.